Time,TemperatureF,DewpointF,PressureIn,WindDirection,WindDirectionDegrees,WindSpeedMPH,WindSpeedGustMPH,Humidity,HourlyPrecipIn,Conditions,Clouds,dailyrainin,SoftwareType,DateUTC
2013-06-18 00:07:00,71.5,71.0,29.97,SE,132,0.0,2.0,98,0.00,,,0.00,weatherlink.com 1.10,2013-06-18 05:07:00,
2013-06-18 00:23:00,71.4,71.0,29.96,ENE,68,1.0,2.0,98,0.00,,,0.00,weatherlink.com 1.10,2013-06-18 05:23:00,
2013-06-18 00:38:00,71.4,71.0,29.96,ENE,71,2.0,3.0,98,0.01,,,0.01,weatherlink.com 1.10,2013-06-18 05:38:00,
2013-06-18 00:53:00,71.6,71.0,29.96,ESE,120,0.0,2.0,98,0.01,,,0.01,weatherlink.com 1.10,2013-06-18 05:53:00,
2013-06-18 01:08:00,72.0,72.0,29.95,SSW,205,1.0,2.0,99,0.01,,,0.01,weatherlink.com 1.10,2013-06-18 06:08:00,
2013-06-18 01:23:00,72.4,72.0,29.94,ENE,77,1.0,3.0,99,0.01,,,0.01,weatherlink.com 1.10,2013-06-18 06:23:00,
2013-06-18 01:38:00,72.7,72.0,29.94,ENE,65,0.0,3.0,99,0.00,,,0.01,weatherlink.com 1.10,2013-06-18 06:38:00,
2013-06-18 01:53:00,72.9,73.0,29.94,ESE,102,0.0,3.0,99,0.00,,,0.01,weatherlink.com 1.10,2013-06-18 06:53:00,
2013-06-18 02:08:00,72.9,73.0,29.94,SE,124,0.0,1.0,99,0.00,,,0.01,weatherlink.com 1.10,2013-06-18 07:08:00,
2013-06-18 02:23:00,72.9,73.0,29.94,South,186,0.0,1.0,99,0.00,,,0.01,weatherlink.com 1.10,2013-06-18 07:23:00,
2013-06-18 02:38:00,72.8,73.0,29.95,South,186,0.0,0.0,99,0.00,,,0.01,weatherlink.com 1.10,2013-06-18 07:38:00,
2013-06-18 02:53:00,72.7,72.0,29.94,South,186,0.0,1.0,99,0.00,,,0.01,weatherlink.com 1.10,2013-06-18 07:53:00,
2013-06-18 03:08:00,72.7,72.0,29.94,SW,236,1.0,1.0,99,0.00,,,0.01,weatherlink.com 1.10,2013-06-18 08:08:00,
2013-06-18 03:23:00,73.0,73.0,29.94,SW,236,0.0,0.0,99,0.00,,,0.01,weatherlink.com 1.10,2013-06-18 08:23:00,
2013-06-18 03:38:00,73.2,73.0,29.94,SW,217,0.0,0.0,99,0.00,,,0.01,weatherlink.com 1.10,2013-06-18 08:38:00,
2013-06-18 03:53:00,73.2,73.0,29.94,SW,217,0.0,0.0,99,0.00,,,0.01,weatherlink.com 1.10,2013-06-18 08:53:00,
2013-06-18 04:08:00,73.3,73.0,29.93,ESE,122,0.0,2.0,99,0.00,,,0.01,weatherlink.com 1.10,2013-06-18 09:08:00,
2013-06-18 04:23:00,73.5,73.0,29.93,ESE,117,0.0,1.0,99,0.00,,,0.01,weatherlink.com 1.10,2013-06-18 09:23:00,
2013-06-18 04:38:00,73.5,73.0,29.93,SSE,156,0.0,2.0,99,0.00,,,0.01,weatherlink.com 1.10,2013-06-18 09:38:00,
2013-06-18 04:53:00,73.6,73.0,29.94,SSE,162,0.0,1.0,99,0.00,,,0.01,weatherlink.com 1.10,2013-06-18 09:53:00,
2013-06-18 05:08:00,73.6,73.0,29.95,SE,141,0.0,4.0,99,0.00,,,0.01,weatherlink.com 1.10,2013-06-18 10:08:00,
2013-06-18 05:23:00,73.7,73.0,29.95,South,183,0.0,1.0,99,0.00,,,0.01,weatherlink.com 1.10,2013-06-18 10:23:00,
2013-06-18 05:38:00,73.7,73.0,29.96,ENE,58,0.0,1.0,99,0.00,,,0.01,weatherlink.com 1.10,2013-06-18 10:38:00,
2013-06-18 05:53:00,73.9,74.0,29.96,WNW,294,0.0,1.0,99,0.00,,,0.01,weatherlink.com 1.10,2013-06-18 10:53:00,
2013-06-18 06:08:00,74.0,74.0,29.96,NE,44,0.0,1.0,99,0.00,,,0.01,weatherlink.com 1.10,2013-06-18 11:08:00,
2013-06-18 06:23:00,74.0,74.0,29.97,East,94,1.0,1.0,99,0.00,,,0.01,weatherlink.com 1.10,2013-06-18 11:23:00,
2013-06-18 06:38:00,74.2,74.0,29.97,ESE,114,0.0,1.0,99,0.00,,,0.01,weatherlink.com 1.10,2013-06-18 11:38:00,
2013-06-18 06:53:00,75.0,75.0,29.97,SSE,165,0.0,3.0,99,0.00,,,0.01,weatherlink.com 1.10,2013-06-18 11:53:00,
2013-06-18 07:08:00,75.2,75.0,29.97,SSE,160,0.0,2.0,99,0.00,,,0.01,weatherlink.com 1.10,2013-06-18 12:08:00,
2013-06-18 07:23:00,75.5,75.0,29.98,NNE,26,0.0,2.0,99,0.01,,,0.02,weatherlink.com 1.10,2013-06-18 12:23:00,
2013-06-18 07:38:00,76.2,76.0,29.98,SSE,150,1.0,2.0,99,0.01,,,0.02,weatherlink.com 1.10,2013-06-18 12:38:00,
2013-06-18 07:53:00,77.0,76.0,29.99,ENE,66,2.0,4.0,98,0.01,,,0.02,weatherlink.com 1.10,2013-06-18 12:53:00,
2013-06-18 08:08:00,78.1,77.0,29.99,SE,143,1.0,4.0,95,0.01,,,0.02,weatherlink.com 1.10,2013-06-18 13:08:00,
2013-06-18 08:23:00,79.7,78.0,29.99,SE,139,2.0,6.0,93,0.00,,,0.02,weatherlink.com 1.10,2013-06-18 13:23:00,
2013-06-18 08:38:00,81.0,78.0,29.99,WSW,248,2.0,4.0,90,0.00,,,0.02,weatherlink.com 1.10,2013-06-18 13:38:00,
2013-06-18 08:53:00,80.3,77.0,29.99,West,266,0.0,5.0,89,0.00,,,0.02,weatherlink.com 1.10,2013-06-18 13:53:00,
2013-06-18 09:09:00,80.7,77.0,29.99,WSW,239,3.0,8.0,87,0.00,,,0.02,weatherlink.com 1.10,2013-06-18 14:09:00,
2013-06-18 09:24:00,80.6,77.0,30.00,WSW,252,1.0,3.0,88,0.00,,,0.02,weatherlink.com 1.10,2013-06-18 14:24:00,
2013-06-18 09:39:00,80.6,77.0,29.99,SSE,148,1.0,5.0,89,0.00,,,0.02,weatherlink.com 1.10,2013-06-18 14:39:00,
2013-06-18 09:54:00,81.5,77.0,29.99,West,277,1.0,5.0,87,0.00,,,0.02,weatherlink.com 1.10,2013-06-18 14:54:00,
2013-06-18 10:09:00,82.1,78.0,29.99,ENE,72,0.0,4.0,86,0.00,,,0.02,weatherlink.com 1.10,2013-06-18 15:09:00,
2013-06-18 10:24:00,83.4,77.0,29.99,East,83,2.0,4.0,82,0.00,,,0.02,weatherlink.com 1.10,2013-06-18 15:24:00,
2013-06-18 10:39:00,84.1,78.0,29.98,WSW,248,1.0,5.0,81,0.00,,,0.02,weatherlink.com 1.10,2013-06-18 15:39:00,
2013-06-18 10:54:00,84.3,77.0,29.98,WNW,297,0.0,4.0,78,0.00,,,0.02,weatherlink.com 1.10,2013-06-18 15:54:00,
2013-06-18 11:09:00,85.5,76.0,29.98,NE,43,2.0,8.0,72,0.00,,,0.02,weatherlink.com 1.10,2013-06-18 16:09:00,
2013-06-18 11:24:00,86.7,75.0,29.97,WNW,297,2.0,6.0,69,0.00,,,0.02,weatherlink.com 1.10,2013-06-18 16:24:00,
2013-06-18 11:39:00,87.2,76.0,29.96,ESE,110,1.0,6.0,70,0.00,,,0.02,weatherlink.com 1.10,2013-06-18 16:39:00,
2013-06-18 11:54:00,87.0,74.0,29.96,West,264,1.0,6.0,66,0.00,,,0.02,weatherlink.com 1.10,2013-06-18 16:54:00,
2013-06-18 12:09:00,87.1,75.0,29.96,WNW,292,1.0,6.0,67,0.00,,,0.02,weatherlink.com 1.10,2013-06-18 17:09:00,
2013-06-18 12:24:00,89.3,75.0,29.95,WNW,301,1.0,7.0,63,0.00,,,0.02,weatherlink.com 1.10,2013-06-18 17:24:00,
2013-06-18 12:39:00,88.5,74.0,29.95,West,277,2.0,5.0,63,0.00,,,0.02,weatherlink.com 1.10,2013-06-18 17:39:00,
2013-06-18 12:54:00,88.7,74.0,29.94,SE,145,4.0,8.0,63,0.00,,,0.02,weatherlink.com 1.10,2013-06-18 17:54:00,
2013-06-18 13:09:00,89.4,74.0,29.94,West,262,1.0,6.0,60,0.00,,,0.02,weatherlink.com 1.10,2013-06-18 18:09:00,
2013-06-18 13:24:00,89.8,74.0,29.94,South,176,2.0,5.0,59,0.00,,,0.02,weatherlink.com 1.10,2013-06-18 18:24:00,
2013-06-18 13:39:00,90.5,74.0,29.93,SSW,192,0.0,6.0,58,0.00,,,0.02,weatherlink.com 1.10,2013-06-18 18:39:00,
2013-06-18 14:09:00,90.3,74.0,29.93,NW,314,1.0,6.0,58,0.00,,,0.02,weatherlink.com 1.10,2013-06-18 19:09:00,
2013-06-18 14:24:00,89.7,75.0,29.92,NNW,330,0.0,4.0,62,0.00,,,0.02,weatherlink.com 1.10,2013-06-18 19:24:00,
2013-06-18 14:39:00,90.0,76.0,29.91,NNE,23,1.0,9.0,64,0.00,,,0.02,weatherlink.com 1.10,2013-06-18 19:39:00,
2013-06-18 14:54:00,90.5,74.0,29.91,SW,228,3.0,7.0,59,0.00,,,0.02,weatherlink.com 1.10,2013-06-18 19:54:00,
2013-06-18 15:09:00,91.0,74.0,29.90,SSE,147,0.0,5.0,58,0.00,,,0.02,weatherlink.com 1.10,2013-06-18 20:09:00,
2013-06-18 15:24:00,90.8,73.0,29.90,WSW,246,0.0,7.0,57,0.00,,,0.02,weatherlink.com 1.10,2013-06-18 20:24:00,
2013-06-18 15:39:00,90.6,75.0,29.90,West,276,1.0,6.0,60,0.00,,,0.02,weatherlink.com 1.10,2013-06-18 20:39:00,
2013-06-18 15:54:00,90.7,75.0,29.89,ESE,117,1.0,4.0,60,0.00,,,0.02,weatherlink.com 1.10,2013-06-18 20:54:00,
2013-06-18 16:09:00,91.8,74.0,29.89,South,188,1.0,9.0,57,0.00,,,0.02,weatherlink.com 1.10,2013-06-18 21:09:00,
2013-06-18 16:24:00,91.7,73.0,29.88,SSE,156,1.0,8.0,54,0.00,,,0.02,weatherlink.com 1.10,2013-06-18 21:24:00,
2013-06-18 16:39:00,91.6,74.0,29.88,WSW,251,2.0,9.0,56,0.00,,,0.02,weatherlink.com 1.10,2013-06-18 21:39:00,
2013-06-18 16:54:00,92.4,74.0,29.88,WSW,249,4.0,5.0,55,0.00,,,0.02,weatherlink.com 1.10,2013-06-18 21:54:00,
2013-06-18 17:09:00,90.2,74.0,29.89,NNE,30,1.0,3.0,59,0.00,,,0.02,weatherlink.com 1.10,2013-06-18 22:09:00,
2013-06-18 17:24:00,85.3,71.0,29.91,WNW,285,2.0,13.0,62,0.00,,,0.02,weatherlink.com 1.10,2013-06-18 22:24:00,
2013-06-18 17:39:00,78.9,71.0,29.92,SW,233,1.0,7.0,77,0.10,,,0.12,weatherlink.com 1.10,2013-06-18 22:39:00,
2013-06-18 17:54:00,74.3,71.0,29.91,SSW,200,0.0,2.0,89,0.14,,,0.16,weatherlink.com 1.10,2013-06-18 22:54:00,
2013-06-18 18:09:00,73.6,71.0,29.91,WSW,245,1.0,1.0,92,0.14,,,0.16,weatherlink.com 1.10,2013-06-18 23:09:00,
2013-06-18 18:24:00,73.5,71.0,29.90,WNW,282,0.0,3.0,93,0.14,,,0.16,weatherlink.com 1.10,2013-06-18 23:24:00,
2013-06-18 18:40:00,74.7,72.0,29.90,South,181,0.0,1.0,92,0.03,,,0.16,weatherlink.com 1.10,2013-06-18 23:40:00,
2013-06-18 18:55:00,75.8,73.0,29.91,South,188,0.0,0.0,91,0.00,,,0.16,weatherlink.com 1.10,2013-06-18 23:55:00,
2013-06-18 19:10:00,74.8,73.0,29.91,SW,219,0.0,1.0,93,0.00,,,0.16,weatherlink.com 1.10,2013-06-19 00:10:00,
2013-06-18 19:25:00,74.2,72.0,29.91,SW,224,0.0,1.0,94,0.00,,,0.16,weatherlink.com 1.10,2013-06-19 00:25:00,
2013-06-18 19:40:00,74.0,73.0,29.91,SW,225,0.0,0.0,95,0.00,,,0.16,weatherlink.com 1.10,2013-06-19 00:40:00,
2013-06-18 19:55:00,73.5,72.0,29.92,SW,226,0.0,0.0,95,0.00,,,0.16,weatherlink.com 1.10,2013-06-19 00:55:00,
2013-06-18 20:10:00,73.1,72.0,29.93,SW,224,0.0,0.0,95,0.00,,,0.16,weatherlink.com 1.10,2013-06-19 01:10:00,
2013-06-18 20:25:00,72.9,72.0,29.94,SE,132,0.0,1.0,96,0.00,,,0.16,weatherlink.com 1.10,2013-06-19 01:25:00,
2013-06-18 20:40:00,72.7,72.0,29.95,SE,129,0.0,1.0,96,0.00,,,0.16,weatherlink.com 1.10,2013-06-19 01:40:00,
2013-06-18 20:55:00,72.6,72.0,29.94,ESE,113,0.0,3.0,97,0.00,,,0.16,weatherlink.com 1.10,2013-06-19 01:55:00,
2013-06-18 21:10:00,72.4,71.0,29.95,WNW,286,0.0,1.0,96,0.00,,,0.16,weatherlink.com 1.10,2013-06-19 02:10:00,
2013-06-18 21:25:00,72.2,71.0,29.95,WNW,290,0.0,0.0,97,0.00,,,0.16,weatherlink.com 1.10,2013-06-19 02:25:00,
2013-06-18 21:40:00,72.0,71.0,29.95,WNW,288,0.0,0.0,96,0.00,,,0.16,weatherlink.com 1.10,2013-06-19 02:40:00,
2013-06-18 21:55:00,71.8,71.0,29.95,WNW,288,0.0,0.0,96,0.00,,,0.16,weatherlink.com 1.10,2013-06-19 02:55:00,
2013-06-18 22:10:00,71.7,71.0,29.95,WNW,288,0.0,0.0,97,0.00,,,0.16,weatherlink.com 1.10,2013-06-19 03:10:00,
2013-06-18 22:25:00,71.7,71.0,29.95,WNW,288,0.0,0.0,97,0.00,,,0.16,weatherlink.com 1.10,2013-06-19 03:25:00,
2013-06-18 22:40:00,71.7,71.0,29.95,WNW,288,0.0,0.0,97,0.00,,,0.16,weatherlink.com 1.10,2013-06-19 03:40:00,
2013-06-18 22:55:00,71.6,71.0,29.95,WNW,288,0.0,0.0,97,0.00,,,0.16,weatherlink.com 1.10,2013-06-19 03:55:00,
2013-06-18 23:10:00,71.6,71.0,29.96,WNW,288,0.0,1.0,97,0.00,,,0.16,weatherlink.com 1.10,2013-06-19 04:10:00,
2013-06-18 23:25:00,71.5,71.0,29.96,ESE,108,0.0,1.0,97,0.00,,,0.16,weatherlink.com 1.10,2013-06-19 04:25:00,
2013-06-18 23:40:00,71.6,71.0,29.96,East,86,0.0,1.0,98,0.00,,,0.16,weatherlink.com 1.10,2013-06-19 04:40:00,
2013-06-18 23:55:00,71.7,71.0,29.96,East,86,0.0,0.0,98,0.00,,,0.16,weatherlink.com 1.10,2013-06-19 04:55:00,